Volver al catálogo

STARLINK-3450

ActivoComunicacionesVLEO
NORAD 51734·PAYLOAD·🇺🇸 United States

Lanzado Feb 21, 2022 desde Cape Canaveral Space Force Station

Loading…

Próximos Pases (próximas 24 horas)

TLE

ActualizadoSource: CelesTrak SupGP

Época: Sep 14, 2026, 21:27 UTC

1 51734C 22016W   26257.89423611 -.00067687  00000+0 -20005-2 0  2578
2 51734  53.1577 175.5806 0001390  98.5225 338.7084 15.34414004    16

Sigue STARLINK-3450 en tiempo real con AllMySat

Download on the App Store